TimeEST,TemperatureF,Dew PointF,Humidity,Sea Level PressureIn,VisibilityMPH,Wind Direction,Wind SpeedMPH,Gust SpeedMPH,PrecipitationIn,Events,Conditions,WindDirDegrees,DateUTC
12:54 AM,41.0,39.0,93,29.86,5.0,Calm,Calm,-,N/A,,Clear,0,2012-02-11 05:54:00
1:54 AM,41.0,39.9,96,29.84,4.0,Calm,Calm,-,N/A,,Partly Cloudy,0,2012-02-11 06:54:00
2:54 AM,43.0,39.9,89,29.83,5.0,Calm,Calm,-,N/A,,Overcast,0,2012-02-11 07:54:00
3:54 AM,44.1,41.0,89,29.80,5.0,Calm,Calm,-,N/A,,Overcast,0,2012-02-11 08:54:00
4:54 AM,44.1,41.0,89,29.78,4.0,Calm,Calm,-,N/A,,Overcast,0,2012-02-11 09:54:00
5:54 AM,44.1,41.0,89,29.77,4.0,Calm,Calm,-,0.00,Rain,Light Rain,0,2012-02-11 10:54:00
6:54 AM,43.0,42.1,97,29.77,3.0,Calm,Calm,-,0.00,,Overcast,0,2012-02-11 11:54:00
7:54 AM,45.0,42.1,90,29.79,4.0,West,8.1,-,N/A,,Overcast,270,2012-02-11 12:54:00
8:54 AM,46.9,42.1,83,29.79,5.0,WNW,10.4,-,N/A,,Haze,300,2012-02-11 13:54:00
9:54 AM,50.0,43.0,77,29.78,5.0,NNW,13.8,20.7,N/A,,Haze,330,2012-02-11 14:54:00
10:54 AM,51.1,37.9,61,29.77,7.0,North,13.8,-,N/A,,Mostly Cloudy,350,2012-02-11 15:54:00
11:54 AM,51.1,35.1,54,29.76,10.0,NNW,12.7,-,N/A,,Overcast,330,2012-02-11 16:54:00
12:54 PM,50.0,32.0,50,29.74,10.0,NW,15.0,-,N/A,,Overcast,310,2012-02-11 17:54:00
1:54 PM,50.0,30.0,46,29.73,10.0,WNW,13.8,-,N/A,,Overcast,290,2012-02-11 18:54:00
2:54 PM,51.1,28.0,41,29.75,10.0,NNW,19.6,26.5,N/A,,Overcast,330,2012-02-11 19:54:00
3:54 PM,50.0,26.1,39,29.76,10.0,NW,16.1,28.8,N/A,,Mostly Cloudy,320,2012-02-11 20:54:00
4:54 PM,46.0,21.9,39,29.79,10.0,NW,20.7,32.2,N/A,,Mostly Cloudy,320,2012-02-11 21:54:00
5:54 PM,39.9,12.9,33,29.86,10.0,NW,24.2,36.8,N/A,,Scattered Clouds,320,2012-02-11 22:54:00
6:54 PM,36.0,7.0,30,29.92,10.0,NW,21.9,33.4,N/A,,Clear,320,2012-02-11 23:54:00
7:54 PM,33.1,3.9,29,29.97,10.0,NW,21.9,36.8,N/A,,Clear,320,2012-02-12 00:54:00
8:54 PM,30.9,6.1,35,30.00,10.0,NW,25.3,36.8,N/A,,Clear,310,2012-02-12 01:54:00
9:54 PM,30.0,6.1,36,30.03,10.0,NW,23.0,33.4,N/A,,Clear,320,2012-02-12 02:54:00
10:54 PM,28.0,3.9,36,30.06,10.0,NW,23.0,31.1,N/A,,Clear,320,2012-02-12 03:54:00
11:54 PM,28.0,3.0,34,30.09,10.0,NW,19.6,28.8,N/A,,Clear,320,2012-02-12 04:54:00